Regional Weather Roundup
Issued by NWS

Home | Current Version | Previous Version | Text Only | Print | Product List | Glossary On
Versions: 1 2 3 4 5 6 7 8 9 10 11 12 13 14 15 16 17 18 19 20 21 22 23 24 25 26 27 28 29 30 31 32 33 34 35 36 37 38 39 40 41 42 43 44 45 46 47 48 49 50
000
ASUS43 KOAX 190010
RWRNE

WEATHER ROUNDUP FOR NEBRASKA
NATIONAL WEATHER SERVICE OMAHA NE
700 PM CDT FRI AUG 18 2017

NOTES: SATELLITE DATA IS BEING USED TO AUGMENT CLOUD COVER ABOVE
       12000 FEET.
       "FAIR" INDICATES FEW OR NO CLOUDS BELOW 12,000 FEET WITH NO
       SIGNIFICANT WEATHER AND/OR OBSTRUCTIONS TO VISIBILITY.


NEZ001>004-019>022-054>056-190100-
NEBRASKA PANHANDLE

CITY           SKY/WX    TMP DP  RH WIND       PRES   REMARKS
SCOTTSBLUFF    SUNNY     87  43  21 E6        30.04S
6HR MIN TEMP:  81; 6HR MAX TEMP:  90;

ALLIANCE       SUNNY     84  47  27 NW5       30.03S
6HR MIN TEMP:  82; 6HR MAX TEMP:  86;

CHADRON        SUNNY     89  38  16 N7        29.97F
6HR MIN TEMP:  84; 6HR MAX TEMP:  90;

GORDON         FAIR      82  47  29 NE6       30.02F
6HR MIN TEMP:  82; 6HR MAX TEMP:  86;

KIMBALL        SUNNY     83  47  28 SE10      30.11S
SIDNEY         SUNNY     86  42  21 VRB6      30.09S
6HR MIN TEMP:  83; 6HR MAX TEMP:  89;

$$

NEZ057>060-069>072-079>082-190100-
SOUTHWEST NEBRASKA

CITY           SKY/WX    TMP DP  RH WIND       PRES   REMARKS
NORTH PLATTE   SUNNY     86  60  41 SW3       29.99S
6HR MIN TEMP:  82; 6HR MAX TEMP:  89;

IMPERIAL       SUNNY     87  41  19 CALM      30.04S
6HR MIN TEMP:  83; 6HR MAX TEMP:  88;

LEXINGTON      SUNNY     83  65  53 SW5       29.97F
MCCOOK         SUNNY     86  51  29 S5        29.99F
6HR MIN TEMP:  84; 6HR MAX TEMP:  90;

OGALLALA       SUNNY     85  53  33 CALM      30.03S
$$

NEZ005>010-023>029-035>040-094-190100-
NORTH CENTRAL NEBRASKA

CITY           SKY/WX    TMP DP  RH WIND       PRES   REMARKS
VALENTINE      SUNNY     85  47  26 NE8       29.99R
6HR MIN TEMP:  85; 6HR MAX TEMP:  88;

AINSWORTH      SUNNY     78  60  54 E7        29.99S
BROKEN BOW     SUNNY     87  54  32 N10       29.97R
6HR MIN TEMP:  85; 6HR MAX TEMP:  91;

O`NEILL        SUNNY     78  62  57 N7        29.97S
ORD            SUNNY     81  60  48 N10       29.94R
6HR MIN TEMP:  81; 6HR MAX TEMP:  86;

THEDFORD       SUNNY     84  52  33 NE8       30.00S
$$

NEZ041-046>049-061>064-073>077-083>087-190100-
SOUTH CENTRAL NEBRASKA

CITY           SKY/WX    TMP DP  RH WIND       PRES   REMARKS
GRAND ISLAND   SUNNY     82  65  56 S7        29.94F
6HR MIN TEMP:  81; 6HR MAX TEMP:  88;

AURORA         SUNNY     82  66  57 S5        29.93F
HASTINGS       SUNNY     83  61  47 S6        29.96F
6HR MIN TEMP:  81; 6HR MAX TEMP:  86;

HEBRON         SUNNY     85  67  56 CALM      29.94R
HOLDREGE       SUNNY     82  62  50 S6        29.98S
KEARNEY        SUNNY     82  65  56 S7        29.96F
YORK           SUNNY     81  72  74 CALM      29.93F
$$

NEZ011>018-030>034-042>045-190100-
NORTHEAST NEBRASKA

CITY           SKY/WX    TMP DP  RH WIND       PRES   REMARKS
NORFOLK        SUNNY     81  65  58 NW8       29.91R
6HR MIN TEMP:  78; 6HR MAX TEMP:  84;

ALBION         SUNNY     82  67  59 N6        29.94R
BLAIR          SUNNY     81  68  65 SW3       29.90S
COLUMBUS       SUNNY     82  67  60 S5        29.92S
FREMONT        SUNNY     81  66  59 SW6       29.91R
TEKAMAH        SUNNY     81  70  69 CALM      29.88S
6HR MIN TEMP:  81; 6HR MAX TEMP:  83;

WAYNE          SUNNY     80  67  65 NW6       29.91R
$$

NEZ050>053-065>068-078-088>093-190100-
SOUTHEAST NEBRASKA

CITY           SKY/WX    TMP DP  RH WIND       PRES   REMARKS
LINCOLN        SUNNY     84  65  52 W7        29.92R
6HR MIN TEMP:  81; 6HR MAX TEMP:  87;

OMAHA EPPLEY   MOSUNNY   86  63  45 W7        29.88S
6HR MIN TEMP:  84; 6HR MAX TEMP:  88;

BEATRICE       SUNNY     86  66  50 W5        29.91S
FALLS CITY     SUNNY     84  66  54 NE3       29.89S
6HR MIN TEMP:  84; 6HR MAX TEMP:  88;

NEBRASKA CITY  SUNNY     83  66  55 CALM      29.90S
PLATTSMOUTH    SUNNY     82  65  56 W5        29.90S
$$

NEZ044-045-051>053-067-190100-
OMAHA AREA

CITY           SKY/WX    TMP DP  RH WIND       PRES   REMARKS
OMAHA EPPLEY   MOSUNNY   86  63  45 W7        29.88S
6HR MIN TEMP:  84; 6HR MAX TEMP:  88;

BLAIR          SUNNY     81  68  65 SW3       29.90S
FREMONT        SUNNY     81  66  59 SW6       29.91R
MILLARD        SUNNY     85  68  57 SW7       29.90R
OFFUTT AFB     SUNNY     85  64  49 W7        29.88S
PLATTSMOUTH    SUNNY     82  65  56 W5        29.90S
WAHOO          FAIR      81  68  63 SW5       29.91R
$$



USA.gov is the U.S. government's official web portal to all federal, state and local government web resources and services.